Memphis, TN

4:37 PM CDT on October 21, 2017 (GMT -0500)
Memphis International

Weather History for KMEM - October, 2012

Change the Weather History Date:

Saturday, October 6, 2012

  Actual Average Record
Temperature  
Mean Temperature 53 °F 68 °F  
Max Temperature 59 °F 78 °F 93 °F (2007)
Min Temperature 46 °F 57 °F 39 °F (1964)
Degree Days  
Heating Degree Days 12 2  
Month to date heating degree days 14 10  
Since 1 July heating degree days 16 21  
Cooling Degree Days 0 4  
Month to date cooling degree days 9 30  
Year to date cooling degree days 2563 2181  
Growing Degree Days 2 (Base 50)    
Moisture  
Dew Point 42 °F    
Average Humidity 65    
Maximum Humidity 86    
Minimum Humidity 43    
Precipitation  
Precipitation 0.23 in 0.12 in 2.74 in (1982)
Month to date precipitation 1.20 0.71  
Year to date precipitation 27.81 39.18  
Snow  
Snow 0.00 in 0.00 in 0.00 in (2002)
Month to date snowfall 0.0 0.0  
Since 1 July snowfall 0.0 0.0  
Since 1 September snowfall 0.0 0.0  
Snow Depth 0.00 in    
Sea Level Pressure  
Sea Level Pressure 30.17 in    
Wind  
Wind Speed 11 mph (NNE)    
Max Wind Speed 21 mph    
Max Gust Speed 28 mph    
Visibility 9 miles    
Events Rain , Thunderstorm    
T = Trace of Precipitation, MM = Missing Value Source: NWS Daily Summary

Daily Weather History Graph

Daily Weather History Graph

Search for Another Location

Airport or City:

Trip Planner

Search our weather history database for the weather conditions in past years. The results will help you decide how hot, cold, wet, or windy it might be!

Date:

Astronomy

Oct. 06, 2012 Rise Set
Actual Time 6:58 AM CDT 6:36 PM CDT
Civil Twilight 6:33 AM CDT 7:01 PM CDT
Nautical Twilight 6:04 AM CDT 7:30 PM CDT
Astronomical Twilight 5:34 AM CDT 8:00 PM CDT
Moon 11:01 PM CDT (10/6) 12:43 PM CDT (10/6)
Length of Visible Light 12h 27m
Length of Day
11h 37m
Waning Gibbous, 65% of the Moon is Illuminated
Oct 6
Waning Gibbous
Oct 8
Last Quarter
Oct 15
New
Oct 21
First Quarter
Oct 29
Full

Hourly Weather History & Observations

Time (CDT) Temp. Windchill Dew Point Humidity Pressure Visibility Wind Dir Wind Speed Gust Speed Precip Events Conditions
12:31 AM 48.2 °F - 44.6 °F 87% 30.14 in 5.0 mi North 10.4 mph - 0.02 in Rain , Thunderstorm Heavy Thunderstorms and Rain
12:54 AM 46.9 °F - 45.0 °F 93% 30.14 in 4.0 mi North 9.2 mph 19.6 mph 0.16 in Rain , Thunderstorm Thunderstorms and Rain
1:32 AM 46.4 °F 39.8 °F 44.6 °F 93% 30.14 in 6.0 mi North 16.1 mph 20.7 mph 0.03 in Rain Light Rain
1:54 AM 46.9 °F - 45.0 °F 93% 30.14 in 8.0 mi North 15.0 mph - 0.03 in   Overcast
2:54 AM 48.0 °F - 45.0 °F 89% 30.13 in 9.0 mi North 11.5 mph - N/A   Overcast
3:16 AM 48.2 °F - 44.6 °F 87% 30.14 in 9.0 mi North 11.5 mph - N/A   Overcast
3:54 AM 48.0 °F - 44.1 °F 86% 30.13 in 9.0 mi North 13.8 mph - N/A   Mostly Cloudy
4:54 AM 46.9 °F - 42.1 °F 83% 30.15 in 10.0 mi NNE 11.5 mph 21.9 mph N/A   Mostly Cloudy
5:01 AM 46.4 °F 41.1 °F 42.8 °F 87% 30.15 in 10.0 mi North 11.5 mph - N/A   Mostly Cloudy
5:36 AM 46.4 °F 40.4 °F 42.8 °F 87% 30.16 in 10.0 mi NNE 13.8 mph - N/A   Overcast
5:50 AM 46.4 °F 39.5 °F 41.0 °F 81% 30.17 in 10.0 mi NNE 17.3 mph 21.9 mph N/A   Overcast
5:54 AM 46.9 °F - 41.0 °F 80% 30.17 in 10.0 mi NNE 15.0 mph - N/A   Overcast
6:54 AM 46.0 °F 39.3 °F 39.9 °F 79% 30.19 in 10.0 mi NE 16.1 mph 20.7 mph N/A   Overcast
7:12 AM 46.4 °F 41.1 °F 39.2 °F 76% 30.20 in 10.0 mi NNE 11.5 mph - N/A   Overcast
7:54 AM 46.0 °F 41.4 °F 39.9 °F 79% 30.21 in 10.0 mi NNE 9.2 mph - N/A   Mostly Cloudy
8:54 AM 48.0 °F - 39.0 °F 71% 30.20 in 10.0 mi NNE 15.0 mph 19.6 mph N/A   Scattered Clouds
9:54 AM 51.1 °F - 36.0 °F 56% 30.21 in 10.0 mi NE 13.8 mph - N/A   Scattered Clouds
10:54 AM 54.0 °F - 34.0 °F 47% 30.17 in 10.0 mi NE 16.1 mph - N/A   Scattered Clouds
11:54 AM 57.0 °F - 35.1 °F 44% 30.16 in 10.0 mi NE 11.5 mph 20.7 mph N/A   Scattered Clouds
12:54 PM 57.0 °F - 35.1 °F 44% 30.17 in 10.0 mi NNE 12.7 mph - N/A   Overcast
1:54 PM 53.1 °F - 41.0 °F 64% 30.17 in 9.0 mi North 6.9 mph - 0.01 in Rain Rain
2:54 PM 51.1 °F - 44.1 °F 77% 30.13 in 9.0 mi North 11.5 mph - 0.10 in Rain Light Rain
3:54 PM 52.0 °F - 43.0 °F 71% 30.13 in 10.0 mi North 5.8 mph - 0.00 in   Overcast
4:54 PM 52.0 °F - 45.0 °F 77% 30.16 in 10.0 mi NNW 9.2 mph - 0.00 in Rain Light Rain
5:54 PM 50.0 °F - 42.8 °F 76% 30.13 in 10.0 mi NNE 11.5 mph - N/A   Overcast
6:54 PM 50.0 °F - 43.0 °F 77% 30.16 in 10.0 mi North 8.1 mph - N/A   Overcast
7:32 PM 50.0 °F - 42.8 °F 76% 30.20 in 10.0 mi North 15.0 mph 24.2 mph 0.00 in Thunderstorm Thunderstorm
7:54 PM 46.9 °F - 43.0 °F 86% 30.19 in 6.0 mi North 12.7 mph 21.9 mph 0.05 in Rain , Thunderstorm Heavy Thunderstorms and Rain
8:10 PM 46.4 °F 40.7 °F 42.8 °F 87% 30.18 in 10.0 mi NNE 12.7 mph 20.7 mph 0.00 in Rain Light Rain
8:54 PM 46.9 °F - 42.1 °F 83% 30.19 in 10.0 mi NNE 11.5 mph - 0.01 in Rain Light Rain
9:54 PM 46.9 °F - 43.0 °F 86% 30.18 in 10.0 mi NNE 10.4 mph - 0.01 in   Overcast
10:54 PM 48.0 °F - 43.0 °F 83% 30.20 in 10.0 mi North 5.8 mph - 0.00 in Rain Light Rain
11:54 PM 48.0 °F - 43.0 °F 83% 30.19 in 10.0 mi NNE 8.1 mph - 0.01 in   Overcast